Retour au catalogue

SL-12 DEB

ActifHEO
NORAD 26037·DEBRIS·🇷🇺 Russia

Lancé Sep 16, 1987 depuis Baikonur Cosmodrome

Loading…

Prochains Passages (prochaines 24 heures)

TLE

FraisSource: Space-Track

Époque: Sep 13, 2026, 11:03 UTC

1 26037U 87079W   26256.46107843 -.00000242  00000-0 -74147-3 0  9999
2 26037  64.9870  19.9685 5411367  62.5575 341.8253  4.64002941468182

Suivez SL-12 DEB en temps réel avec AllMySat

Download on the App Store